Time,TemperatureF,DewpointF,PressureIn,WindDirection,WindDirectionDegrees,WindSpeedMPH,WindSpeedGustMPH,Humidity,HourlyPrecipIn,Conditions,Clouds,dailyrainin,SoftwareType,DateUTC
2013-02-26 00:00:00,28.4,0.0,30.23,ENE,62,0.0,0.0,0,0.00,,---,0.00,VWS V14.00,2013-02-26 05:00:00,
2013-02-26 00:01:00,37.9,0.0,30.19,East,101,5.6,15.6,0,0.00,,---,0.00,VWS V14.00,2013-02-26 05:01:00,
2013-02-26 00:02:00,37.8,0.0,30.19,ESE,122,7.8,15.6,0,0.00,,---,0.00,VWS V14.00,2013-02-26 05:02:00,
2013-02-26 00:03:00,37.8,0.0,30.19,East,91,13.6,15.6,0,0.00,,---,0.00,VWS V14.00,2013-02-26 05:03:00,
2013-02-26 00:04:00,37.8,0.0,30.19,SE,146,7.4,15.6,0,0.00,,---,0.00,VWS V14.00,2013-02-26 05:04:00,
2013-02-26 00:05:00,28.7,0.0,30.23,ENE,62,0.0,0.0,0,0.00,,---,0.00,VWS V14.00,2013-02-26 05:05:00,
2013-02-26 00:06:00,37.8,0.0,30.19,SSE,160,8.9,15.8,0,0.00,,---,0.00,VWS V14.00,2013-02-26 05:06:00,
2013-02-26 00:07:00,37.9,0.0,30.19,East,97,8.0,15.8,0,0.00,,---,0.00,VWS V14.00,2013-02-26 05:07:00,
2013-02-26 00:10:00,28.8,0.0,30.24,ENE,62,0.0,0.0,0,0.00,,---,0.00,VWS V14.00,2013-02-26 05:10:00,
2013-02-26 00:15:00,28.7,0.0,30.24,ENE,62,0.0,0.0,0,0.00,,---,0.00,VWS V14.00,2013-02-26 05:15:00,
2013-02-26 00:20:00,28.7,0.0,30.24,ENE,62,0.0,0.0,0,0.00,,---,0.00,VWS V14.00,2013-02-26 05:20:00,
2013-02-26 00:25:00,28.5,0.0,30.24,ENE,62,0.0,0.0,0,0.00,,---,0.00,VWS V14.00,2013-02-26 05:25:00,
2013-02-26 00:30:00,28.6,0.0,30.24,ENE,62,0.0,0.0,0,0.00,,---,0.00,VWS V14.00,2013-02-26 05:30:00,
2013-02-26 00:35:00,28.4,0.0,30.24,ENE,62,0.0,0.0,0,0.00,,---,0.00,VWS V14.00,2013-02-26 05:35:00,
2013-02-26 00:40:00,28.4,0.0,30.24,ENE,62,0.0,0.0,0,0.00,,---,0.00,VWS V14.00,2013-02-26 05:40:00,
2013-02-26 00:45:00,28.5,0.0,30.24,ENE,62,0.0,0.0,0,0.00,,---,0.00,VWS V14.00,2013-02-26 05:45:00,
2013-02-26 00:50:00,28.8,0.0,30.24,ENE,62,0.0,0.0,0,0.00,,---,0.00,VWS V14.00,2013-02-26 05:50:00,
2013-02-26 00:55:00,28.9,0.0,30.25,ENE,62,0.0,0.0,0,0.00,,---,0.00,VWS V14.00,2013-02-26 05:55:00,
2013-02-26 01:00:00,29.1,0.0,30.25,ENE,62,0.0,0.0,0,0.00,,---,0.00,VWS V14.00,2013-02-26 06:00:00,
2013-02-26 01:05:00,29.3,0.0,30.25,ENE,62,0.0,0.0,0,0.00,,---,0.00,VWS V14.00,2013-02-26 06:05:00,
2013-02-26 01:10:00,29.4,0.0,30.25,ENE,62,0.0,0.0,0,0.00,,---,0.00,VWS V14.00,2013-02-26 06:10:00,
2013-02-26 01:15:00,29.5,0.0,30.25,ENE,62,0.0,0.0,0,0.00,,---,0.00,VWS V14.00,2013-02-26 06:15:00,
2013-02-26 01:20:00,29.4,0.0,30.25,ENE,62,0.0,0.0,0,0.00,,---,0.00,VWS V14.00,2013-02-26 06:20:00,
2013-02-26 01:25:00,29.3,0.0,30.25,ENE,62,0.0,0.0,0,0.00,,---,0.00,VWS V14.00,2013-02-26 06:25:00,
2013-02-26 01:30:00,29.4,0.0,30.25,ENE,62,0.0,0.0,0,0.00,,---,0.00,VWS V14.00,2013-02-26 06:30:00,
2013-02-26 01:35:00,29.4,0.0,30.25,ENE,62,0.0,0.0,0,0.00,,---,0.00,VWS V14.00,2013-02-26 06:35:00,
2013-02-26 01:40:00,29.6,0.0,30.25,ENE,62,0.0,0.0,0,0.00,,---,0.00,VWS V14.00,2013-02-26 06:40:00,
2013-02-26 01:45:00,30.2,0.0,30.25,ENE,62,0.0,0.0,0,0.00,,---,0.00,VWS V14.00,2013-02-26 06:45:00,
2013-02-26 01:50:00,30.3,0.0,30.25,ENE,62,0.0,0.0,0,0.00,,---,0.00,VWS V14.00,2013-02-26 06:50:00,
2013-02-26 01:55:00,30.6,0.0,30.25,ENE,62,0.0,0.0,0,0.00,,---,0.00,VWS V14.00,2013-02-26 06:55:00,
2013-02-26 02:00:00,30.7,0.0,30.24,ENE,62,0.0,0.0,0,0.00,,---,0.00,VWS V14.00,2013-02-26 07:00:00,
2013-02-26 02:05:00,30.8,0.0,30.24,ENE,62,0.0,0.0,0,0.00,,---,0.00,VWS V14.00,2013-02-26 07:05:00,
2013-02-26 02:10:00,31.0,0.0,30.24,ENE,62,0.0,0.0,0,0.00,,---,0.00,VWS V14.00,2013-02-26 07:10:00,
2013-02-26 02:15:00,31.0,0.0,30.24,ENE,62,0.0,0.0,0,0.00,,---,0.00,VWS V14.00,2013-02-26 07:15:00,
2013-02-26 02:20:00,31.1,0.0,30.24,ENE,62,0.0,0.0,0,0.00,,---,0.00,VWS V14.00,2013-02-26 07:20:00,
2013-02-26 02:25:00,31.2,0.0,30.24,ENE,62,0.0,0.0,0,0.00,,---,0.00,VWS V14.00,2013-02-26 07:25:00,
2013-02-26 02:30:00,31.3,0.0,30.24,ENE,62,0.0,0.0,0,0.00,,---,0.00,VWS V14.00,2013-02-26 07:30:00,
2013-02-26 02:35:00,31.4,0.0,30.24,ENE,62,0.0,0.0,0,0.00,,---,0.00,VWS V14.00,2013-02-26 07:35:00,
2013-02-26 02:40:00,31.5,0.0,30.24,ENE,62,0.0,0.0,0,0.00,,---,0.00,VWS V14.00,2013-02-26 07:40:00,
2013-02-26 02:45:00,31.4,0.0,30.24,ENE,62,0.0,0.0,0,0.00,,---,0.00,VWS V14.00,2013-02-26 07:45:00,
2013-02-26 02:50:00,31.5,0.0,30.24,ENE,62,0.0,0.0,0,0.00,,---,0.00,VWS V14.00,2013-02-26 07:50:00,
2013-02-26 02:55:00,31.3,0.0,30.24,ENE,62,0.0,0.0,0,0.00,,---,0.00,VWS V14.00,2013-02-26 07:55:00,
2013-02-26 03:00:00,31.3,0.0,30.24,ENE,62,0.0,0.0,0,0.00,,---,0.00,VWS V14.00,2013-02-26 08:00:00,
2013-02-26 03:05:00,31.4,0.0,30.24,ENE,62,0.0,0.0,0,0.00,,---,0.00,VWS V14.00,2013-02-26 08:05:00,
2013-02-26 03:10:00,31.2,0.0,30.25,ENE,62,0.0,0.0,0,0.00,,---,0.00,VWS V14.00,2013-02-26 08:10:00,
2013-02-26 03:15:00,31.3,0.0,30.26,ENE,62,0.0,0.0,0,0.00,,---,0.00,VWS V14.00,2013-02-26 08:15:00,
2013-02-26 03:20:00,31.3,0.0,30.26,ENE,62,0.0,0.0,0,0.00,,---,0.00,VWS V14.00,2013-02-26 08:20:00,
2013-02-26 03:25:00,31.3,0.0,30.26,ENE,62,0.0,0.0,0,0.00,,---,0.00,VWS V14.00,2013-02-26 08:25:00,
2013-02-26 03:30:00,31.3,0.0,30.27,ENE,62,0.0,0.0,0,0.00,,---,0.00,VWS V14.00,2013-02-26 08:30:00,
2013-02-26 03:35:00,31.1,0.0,30.27,ENE,62,0.0,0.0,0,0.00,,---,0.00,VWS V14.00,2013-02-26 08:35:00,
2013-02-26 03:40:00,31.1,0.0,30.27,ENE,62,0.0,0.0,0,0.00,,---,0.00,VWS V14.00,2013-02-26 08:40:00,
2013-02-26 03:45:00,31.1,0.0,30.27,ENE,62,0.0,0.0,0,0.00,,---,0.00,VWS V14.00,2013-02-26 08:45:00,
2013-02-26 03:50:00,31.2,0.0,30.28,ENE,62,0.0,0.0,0,0.00,,---,0.00,VWS V14.00,2013-02-26 08:50:00,
2013-02-26 03:55:00,31.2,0.0,30.28,ENE,62,0.0,0.0,0,0.00,,---,0.00,VWS V14.00,2013-02-26 08:55:00,
2013-02-26 04:00:00,31.2,0.0,30.28,ENE,62,0.0,0.0,0,0.00,,---,0.00,VWS V14.00,2013-02-26 09:00:00,
2013-02-26 04:05:00,31.2,0.0,30.28,ENE,62,0.0,0.0,0,0.00,,---,0.00,VWS V14.00,2013-02-26 09:05:00,
2013-02-26 04:10:00,31.2,0.0,30.28,ENE,62,0.0,0.0,0,0.00,,---,0.00,VWS V14.00,2013-02-26 09:10:00,
2013-02-26 04:15:00,31.1,0.0,30.28,ENE,62,0.0,0.0,0,0.00,,---,0.00,VWS V14.00,2013-02-26 09:15:00,
2013-02-26 04:20:00,30.9,0.0,30.28,ENE,62,0.0,0.0,0,0.00,,---,0.00,VWS V14.00,2013-02-26 09:20:00,
2013-02-26 04:25:00,30.7,0.0,30.28,ENE,62,0.0,0.0,0,0.00,,---,0.00,VWS V14.00,2013-02-26 09:25:00,
2013-02-26 04:30:00,30.7,0.0,30.28,ENE,62,0.0,0.0,0,0.00,,---,0.00,VWS V14.00,2013-02-26 09:30:00,
2013-02-26 04:35:00,30.9,0.0,30.28,ENE,62,0.0,0.0,0,0.00,,---,0.00,VWS V14.00,2013-02-26 09:35:00,
2013-02-26 04:40:00,31.0,0.0,30.28,ENE,62,0.0,0.0,0,0.00,,---,0.00,VWS V14.00,2013-02-26 09:40:00,
2013-02-26 04:45:00,31.1,0.0,30.28,ENE,62,0.0,0.0,0,0.00,,---,0.00,VWS V14.00,2013-02-26 09:45:00,
2013-02-26 04:50:00,31.2,0.0,30.28,ENE,62,0.0,0.0,0,0.00,,---,0.00,VWS V14.00,2013-02-26 09:50:00,
2013-02-26 04:55:00,31.3,0.0,30.28,ENE,62,0.0,0.0,0,0.00,,---,0.00,VWS V14.00,2013-02-26 09:55:00,
2013-02-26 05:00:00,31.2,0.0,30.28,ENE,62,0.0,0.0,0,0.00,,---,0.00,VWS V14.00,2013-02-26 10:00:00,
2013-02-26 05:05:00,31.3,0.0,30.29,ENE,62,0.0,0.0,0,0.00,,---,0.00,VWS V14.00,2013-02-26 10:05:00,
2013-02-26 05:10:00,31.3,0.0,30.29,ENE,62,0.0,0.0,0,0.00,,---,0.00,VWS V14.00,2013-02-26 10:10:00,
2013-02-26 05:15:00,31.3,0.0,30.28,ENE,62,0.0,0.0,0,0.00,,---,0.00,VWS V14.00,2013-02-26 10:15:00,
2013-02-26 05:20:00,31.3,0.0,30.28,ENE,62,0.0,0.0,0,0.00,,---,0.00,VWS V14.00,2013-02-26 10:20:00,
2013-02-26 05:25:00,31.3,0.0,30.28,ENE,62,0.0,0.0,0,0.00,,---,0.00,VWS V14.00,2013-02-26 10:25:00,
2013-02-26 05:30:00,31.1,0.0,30.28,ENE,62,0.0,0.0,0,0.00,,---,0.00,VWS V14.00,2013-02-26 10:30:00,
2013-02-26 05:35:00,31.0,0.0,30.28,ENE,62,0.0,0.0,0,0.00,,---,0.00,VWS V14.00,2013-02-26 10:35:00,
2013-02-26 05:40:00,31.0,0.0,30.28,ENE,62,0.0,0.0,0,0.00,,---,0.00,VWS V14.00,2013-02-26 10:40:00,
2013-02-26 05:45:00,30.9,0.0,30.29,ENE,62,0.0,0.0,0,0.00,,---,0.00,VWS V14.00,2013-02-26 10:45:00,
2013-02-26 05:50:00,30.9,0.0,30.29,ENE,62,0.0,0.0,0,0.00,,---,0.00,VWS V14.00,2013-02-26 10:50:00,
2013-02-26 05:55:00,30.9,0.0,30.29,ENE,62,0.0,0.0,0,0.00,,---,0.00,VWS V14.00,2013-02-26 10:55:00,
2013-02-26 06:00:00,31.0,0.0,30.29,ENE,62,0.0,0.0,0,0.00,,---,0.00,VWS V14.00,2013-02-26 11:00:00,
2013-02-26 06:05:00,31.3,0.0,30.29,ENE,62,0.0,0.0,0,0.00,,---,0.00,VWS V14.00,2013-02-26 11:05:00,
2013-02-26 06:10:00,31.1,0.0,30.30,ENE,62,0.0,0.0,0,0.00,,---,0.00,VWS V14.00,2013-02-26 11:10:00,
2013-02-26 06:15:00,31.0,0.0,30.30,ENE,62,0.0,0.0,0,0.00,,---,0.00,VWS V14.00,2013-02-26 11:15:00,
2013-02-26 06:20:00,31.0,0.0,30.30,ENE,62,0.0,0.0,0,0.00,,---,0.00,VWS V14.00,2013-02-26 11:20:00,
2013-02-26 06:25:00,31.1,0.0,30.31,ENE,62,0.0,0.0,0,0.00,,---,0.00,VWS V14.00,2013-02-26 11:25:00,
2013-02-26 06:30:00,31.1,0.0,30.31,ENE,62,0.0,0.0,0,0.00,,---,0.00,VWS V14.00,2013-02-26 11:30:00,
2013-02-26 06:35:00,31.4,0.0,30.31,ENE,62,0.0,0.0,0,0.00,,---,0.00,VWS V14.00,2013-02-26 11:35:00,
2013-02-26 06:40:00,31.2,0.0,30.31,ENE,62,0.0,0.0,0,0.00,,---,0.00,VWS V14.00,2013-02-26 11:40:00,
2013-02-26 06:45:00,31.2,0.0,30.31,ENE,62,0.0,0.0,0,0.00,,---,0.00,VWS V14.00,2013-02-26 11:45:00,
2013-02-26 06:50:00,31.2,0.0,30.31,ENE,62,0.0,0.0,0,0.00,,---,0.00,VWS V14.00,2013-02-26 11:50:00,
2013-02-26 06:55:00,31.3,0.0,30.31,ENE,62,0.0,0.0,0,0.00,,---,0.00,VWS V14.00,2013-02-26 11:55:00,
2013-02-26 07:00:00,31.3,0.0,30.31,ENE,62,0.0,0.0,0,0.00,,---,0.00,VWS V14.00,2013-02-26 12:00:00,
2013-02-26 07:05:00,31.3,0.0,30.31,ENE,62,0.0,0.0,0,0.00,,---,0.00,VWS V14.00,2013-02-26 12:05:00,
2013-02-26 07:10:00,31.5,0.0,30.31,ENE,62,0.0,0.0,0,0.00,,---,0.00,VWS V14.00,2013-02-26 12:10:00,
2013-02-26 07:15:00,31.6,0.0,30.31,ENE,62,0.0,0.0,0,0.00,,---,0.00,VWS V14.00,2013-02-26 12:15:00,
2013-02-26 07:20:00,31.6,0.0,30.31,ENE,62,0.0,0.0,0,0.00,,---,0.00,VWS V14.00,2013-02-26 12:20:00,
2013-02-26 07:25:00,31.7,0.0,30.32,ENE,62,0.0,0.0,0,0.00,,---,0.00,VWS V14.00,2013-02-26 12:25:00,
2013-02-26 07:30:00,31.9,0.0,30.31,ENE,62,0.0,0.0,0,0.00,,---,0.00,VWS V14.00,2013-02-26 12:30:00,
2013-02-26 07:35:00,32.3,0.0,30.32,ENE,62,0.0,0.0,0,0.00,,---,0.00,VWS V14.00,2013-02-26 12:35:00,
2013-02-26 07:40:00,32.6,0.0,30.32,ENE,62,0.0,0.0,0,0.00,,---,0.00,VWS V14.00,2013-02-26 12:40:00,
2013-02-26 07:45:00,32.8,0.0,30.32,ENE,62,0.0,0.0,0,0.00,,---,0.00,VWS V14.00,2013-02-26 12:45:00,
2013-02-26 07:50:00,33.0,0.0,30.32,ENE,62,0.0,0.0,0,0.00,,---,0.00,VWS V14.00,2013-02-26 12:50:00,
2013-02-26 07:55:00,33.3,0.0,30.32,ENE,62,0.0,0.0,0,0.00,,---,0.00,VWS V14.00,2013-02-26 12:55:00,
2013-02-26 08:00:00,33.8,0.0,30.32,ENE,62,0.0,0.0,0,0.00,,---,0.00,VWS V14.00,2013-02-26 13:00:00,
2013-02-26 08:05:00,34.1,0.0,30.32,ENE,62,0.0,0.0,0,0.00,,---,0.00,VWS V14.00,2013-02-26 13:05:00,
2013-02-26 08:10:00,34.0,0.0,30.33,ENE,62,0.0,0.0,0,0.00,,---,0.00,VWS V14.00,2013-02-26 13:10:00,
2013-02-26 08:15:00,34.3,0.0,30.33,ENE,62,0.0,0.0,0,0.00,,---,0.00,VWS V14.00,2013-02-26 13:15:00,
2013-02-26 08:20:00,34.8,0.0,30.33,ENE,62,0.0,0.0,0,0.00,,---,0.00,VWS V14.00,2013-02-26 13:20:00,
2013-02-26 08:25:00,35.4,0.0,30.33,ENE,62,0.0,0.0,0,0.00,,---,0.00,VWS V14.00,2013-02-26 13:25:00,
2013-02-26 08:30:00,35.9,0.0,30.33,ENE,62,0.0,0.0,0,0.00,,---,0.00,VWS V14.00,2013-02-26 13:30:00,
2013-02-26 08:35:00,36.2,0.0,30.34,ENE,62,0.0,0.0,0,0.00,,---,0.00,VWS V14.00,2013-02-26 13:35:00,
2013-02-26 08:40:00,36.3,0.0,30.33,ENE,62,0.0,0.0,0,0.00,,---,0.00,VWS V14.00,2013-02-26 13:40:00,
2013-02-26 08:45:00,37.2,0.0,30.33,ENE,62,0.0,0.0,0,0.00,,---,0.00,VWS V14.00,2013-02-26 13:45:00,
2013-02-26 08:50:00,37.8,0.0,30.33,ENE,62,0.0,0.0,0,0.00,,---,0.00,VWS V14.00,2013-02-26 13:50:00,
2013-02-26 08:54:00,37.9,0.0,30.33,ENE,62,0.0,0.0,0,0.00,,---,0.00,VWS V14.00,2013-02-26 13:54:00,
2013-02-26 09:00:00,38.4,0.0,30.33,ENE,62,0.0,0.0,0,0.00,,---,0.00,VWS V14.00,2013-02-26 14:00:00,
2013-02-26 09:05:00,39.2,0.0,30.33,ENE,62,0.0,0.0,0,0.00,,---,0.00,VWS V14.00,2013-02-26 14:05:00,
2013-02-26 09:10:00,40.1,0.0,30.33,ENE,62,0.0,0.0,0,0.00,,---,0.00,VWS V14.00,2013-02-26 14:10:00,
2013-02-26 09:14:00,40.9,0.0,30.33,ENE,62,0.0,0.0,0,0.00,,---,0.00,VWS V14.00,2013-02-26 14:14:00,
2013-02-26 09:19:00,40.8,0.0,30.33,ENE,62,0.0,0.0,0,0.00,,---,0.00,VWS V14.00,2013-02-26 14:19:00,
2013-02-26 09:24:00,41.0,0.0,30.33,ENE,62,0.0,0.0,0,0.00,,---,0.00,VWS V14.00,2013-02-26 14:24:00,
2013-02-26 09:30:00,41.8,0.0,30.34,ENE,62,0.0,0.0,0,0.00,,---,0.00,VWS V14.00,2013-02-26 14:30:00,
2013-02-26 09:35:00,41.3,0.0,30.33,NNE,30,4.2,0.0,0,0.00,,---,0.00,VWS V14.00,2013-02-26 14:35:00,
2013-02-26 09:40:00,41.8,0.0,30.33,NE,34,0.0,4.2,0,0.00,,---,0.00,VWS V14.00,2013-02-26 14:40:00,
2013-02-26 09:45:00,41.4,0.0,30.33,NE,34,0.0,0.0,0,0.00,,---,0.00,VWS V14.00,2013-02-26 14:45:00,
2013-02-26 09:50:00,41.3,0.0,30.33,NE,34,0.0,0.0,0,0.00,,---,0.00,VWS V14.00,2013-02-26 14:50:00,
2013-02-26 09:55:00,41.4,0.0,30.34,NE,34,0.0,0.0,0,0.00,,---,0.00,VWS V14.00,2013-02-26 14:55:00,
2013-02-26 10:00:00,42.0,0.0,30.34,NE,34,0.0,0.0,0,0.00,,---,0.00,VWS V14.00,2013-02-26 15:00:00,
2013-02-26 10:05:00,42.3,0.0,30.34,NE,34,0.0,0.0,0,0.00,,---,0.00,VWS V14.00,2013-02-26 15:05:00,
2013-02-26 10:10:00,42.5,0.0,30.34,NE,34,0.0,0.0,0,0.00,,---,0.00,VWS V14.00,2013-02-26 15:10:00,
2013-02-26 10:15:00,43.1,0.0,30.34,NE,34,0.0,0.0,0,0.00,,---,0.00,VWS V14.00,2013-02-26 15:15:00,
2013-02-26 10:20:00,43.3,0.0,30.34,NE,34,0.0,0.0,0,0.00,,---,0.00,VWS V14.00,2013-02-26 15:20:00,
2013-02-26 10:25:00,45.1,0.0,30.33,NE,34,0.0,0.0,0,0.00,,---,0.00,VWS V14.00,2013-02-26 15:25:00,
2013-02-26 10:30:00,45.6,0.0,30.33,NE,34,0.0,0.0,0,0.00,,---,0.00,VWS V14.00,2013-02-26 15:30:00,
2013-02-26 10:35:00,46.4,0.0,30.33,ENE,76,0.0,3.1,0,0.00,,---,0.00,VWS V14.00,2013-02-26 15:35:00,
2013-02-26 10:40:00,45.0,0.0,30.33,ENE,76,0.0,0.0,0,0.00,,---,0.00,VWS V14.00,2013-02-26 15:40:00,
2013-02-26 10:45:00,46.1,0.0,30.33,ENE,76,0.0,0.0,0,0.00,,---,0.00,VWS V14.00,2013-02-26 15:45:00,
2013-02-26 10:50:00,45.6,0.0,30.33,ENE,76,0.0,0.0,0,0.00,,---,0.00,VWS V14.00,2013-02-26 15:50:00,
2013-02-26 10:55:00,46.0,0.0,30.33,NE,49,4.8,4.8,0,0.00,,---,0.00,VWS V14.00,2013-02-26 15:55:00,
2013-02-26 11:00:00,46.9,0.0,30.33,NE,56,7.3,7.3,0,0.00,,---,0.00,VWS V14.00,2013-02-26 16:00:00,
2013-02-26 11:05:00,47.2,0.0,30.33,NNE,28,4.8,8.5,0,0.00,,---,0.00,VWS V14.00,2013-02-26 16:05:00,
2013-02-26 11:10:00,46.4,0.0,30.33,NE,37,5.8,8.0,0,0.00,,---,0.00,VWS V14.00,2013-02-26 16:10:00,
2013-02-26 11:15:00,45.7,0.0,30.33,NNE,15,3.0,8.1,0,0.00,,---,0.00,VWS V14.00,2013-02-26 16:15:00,
2013-02-26 11:20:00,45.2,0.0,30.33,NNE,15,0.0,7.3,0,0.00,,---,0.00,VWS V14.00,2013-02-26 16:20:00,
2013-02-26 11:25:00,44.6,0.0,30.33,NE,34,0.0,5.0,0,0.00,,---,0.00,VWS V14.00,2013-02-26 16:25:00,
2013-02-26 11:30:00,44.3,0.0,30.33,NE,34,0.0,6.8,0,0.00,,---,0.00,VWS V14.00,2013-02-26 16:30:00,
2013-02-26 11:35:00,45.7,0.0,30.33,NE,56,4.3,6.0,0,0.00,,---,0.00,VWS V14.00,2013-02-26 16:35:00,
2013-02-26 11:40:00,47.2,0.0,30.32,North,0,3.3,6.1,0,0.00,,---,0.00,VWS V14.00,2013-02-26 16:40:00,
2013-02-26 11:45:00,48.1,0.0,30.32,North,0,0.0,6.4,0,0.00,,---,0.00,VWS V14.00,2013-02-26 16:45:00,
2013-02-26 11:50:00,49.4,0.0,30.32,North,0,0.0,0.0,0,0.00,,---,0.00,VWS V14.00,2013-02-26 16:50:00,
2013-02-26 11:55:00,49.0,0.0,30.32,North,0,0.0,0.0,0,0.00,,---,0.00,VWS V14.00,2013-02-26 16:55:00,
2013-02-26 12:00:00,49.8,0.0,30.32,North,0,0.0,0.0,0,0.00,,---,0.00,VWS V14.00,2013-02-26 17:00:00,
2013-02-26 12:05:00,46.3,0.0,30.31,North,0,0.0,0.0,0,0.00,,---,0.00,VWS V14.00,2013-02-26 17:05:00,
2013-02-26 12:10:00,45.2,0.0,30.31,North,0,0.0,0.0,0,0.00,,---,0.00,VWS V14.00,2013-02-26 17:10:00,
2013-02-26 12:15:00,45.1,0.0,30.31,North,0,0.0,0.0,0,0.00,,---,0.00,VWS V14.00,2013-02-26 17:15:00,
2013-02-26 12:20:00,44.5,0.0,30.31,NE,48,0.0,6.4,0,0.00,,---,0.00,VWS V14.00,2013-02-26 17:20:00,
2013-02-26 12:25:00,44.9,0.0,30.31,NE,38,0.0,6.1,0,0.00,,---,0.00,VWS V14.00,2013-02-26 17:25:00,
2013-02-26 12:30:00,44.5,0.0,30.31,NE,41,7.1,7.1,0,0.00,,---,0.00,VWS V14.00,2013-02-26 17:30:00,
2013-02-26 12:35:00,44.9,0.0,30.30,North,359,3.4,7.8,0,0.00,,---,0.00,VWS V14.00,2013-02-26 17:35:00,
2013-02-26 12:40:00,44.9,0.0,30.31,NE,34,0.0,7.5,0,0.00,,---,0.00,VWS V14.00,2013-02-26 17:40:00,
2013-02-26 12:45:00,45.7,0.0,30.31,NE,34,0.0,4.3,0,0.00,,---,0.00,VWS V14.00,2013-02-26 17:45:00,
2013-02-26 12:50:00,48.6,0.0,30.31,NE,34,0.0,0.0,0,0.00,,---,0.00,VWS V14.00,2013-02-26 17:50:00,
2013-02-26 12:55:00,47.4,0.0,30.32,NE,34,0.0,0.0,0,0.00,,---,0.00,VWS V14.00,2013-02-26 17:55:00,
2013-02-26 13:00:00,47.1,0.0,30.31,NE,34,0.0,0.0,0,0.00,,---,0.00,VWS V14.00,2013-02-26 18:00:00,
2013-02-26 13:05:00,46.7,0.0,30.31,NE,34,0.0,0.0,0,0.00,,---,0.00,VWS V14.00,2013-02-26 18:05:00,
2013-02-26 13:10:00,46.7,0.0,30.31,NE,34,0.0,0.0,0,0.00,,---,0.00,VWS V14.00,2013-02-26 18:10:00,
2013-02-26 13:15:00,46.4,0.0,30.31,NE,34,0.0,0.0,0,0.00,,---,0.00,VWS V14.00,2013-02-26 18:15:00,
2013-02-26 13:20:00,49.4,0.0,30.32,NE,34,0.0,0.0,0,0.00,,---,0.00,VWS V14.00,2013-02-26 18:20:00,
2013-02-26 13:25:00,47.0,0.0,30.32,NE,34,0.0,0.0,0,0.00,,---,0.00,VWS V14.00,2013-02-26 18:25:00,
2013-02-26 13:30:00,47.6,0.0,30.32,NE,34,0.0,0.0,0,0.00,,---,0.00,VWS V14.00,2013-02-26 18:30:00,
2013-02-26 13:34:00,47.9,0.0,30.32,NE,34,0.0,0.0,0,0.00,,---,0.00,VWS V14.00,2013-02-26 18:34:00,
2013-02-26 13:39:00,46.7,0.0,30.31,NE,34,0.0,0.0,0,0.00,,---,0.00,VWS V14.00,2013-02-26 18:39:00,
2013-02-26 13:44:00,49.7,0.0,30.31,NE,34,0.0,0.0,0,0.00,,---,0.00,VWS V14.00,2013-02-26 18:44:00,
2013-02-26 13:49:00,49.5,0.0,30.31,NE,34,0.0,0.0,0,0.00,,---,0.00,VWS V14.00,2013-02-26 18:49:00,
2013-02-26 13:54:00,48.4,0.0,30.32,NE,34,0.0,0.0,0,0.00,,---,0.00,VWS V14.00,2013-02-26 18:54:00,
2013-02-26 13:59:00,45.1,0.0,30.32,NE,34,0.0,0.0,0,0.00,,---,0.00,VWS V14.00,2013-02-26 18:59:00,
2013-02-26 14:04:00,45.3,0.0,30.31,NE,34,0.0,0.0,0,0.00,,---,0.00,VWS V14.00,2013-02-26 19:04:00,
2013-02-26 14:09:00,46.1,0.0,30.31,NE,34,0.0,0.0,0,0.00,,---,0.00,VWS V14.00,2013-02-26 19:09:00,
2013-02-26 14:14:00,46.3,0.0,30.31,NE,34,0.0,0.0,0,0.00,,---,0.00,VWS V14.00,2013-02-26 19:14:00,
2013-02-26 14:19:00,47.3,0.0,30.31,NE,34,0.0,0.0,0,0.00,,---,0.00,VWS V14.00,2013-02-26 19:19:00,
2013-02-26 14:24:00,47.8,0.0,30.31,NE,34,0.0,0.0,0,0.00,,---,0.00,VWS V14.00,2013-02-26 19:24:00,
2013-02-26 14:29:00,46.3,0.0,30.30,NE,34,0.0,0.0,0,0.00,,---,0.00,VWS V14.00,2013-02-26 19:29:00,
2013-02-26 14:34:00,44.4,0.0,30.30,NE,34,0.0,0.0,0,0.00,,---,0.00,VWS V14.00,2013-02-26 19:34:00,
2013-02-26 14:39:00,47.1,0.0,30.30,NE,34,0.0,0.0,0,0.00,,---,0.00,VWS V14.00,2013-02-26 19:39:00,
2013-02-26 14:44:00,44.7,0.0,30.29,NE,34,0.0,0.0,0,0.00,,---,0.00,VWS V14.00,2013-02-26 19:44:00,
2013-02-26 14:49:00,43.2,0.0,30.29,NE,34,0.0,0.0,0,0.00,,---,0.00,VWS V14.00,2013-02-26 19:49:00,
2013-02-26 14:54:00,43.0,0.0,30.29,NE,34,0.0,0.0,0,0.00,,---,0.00,VWS V14.00,2013-02-26 19:54:00,
2013-02-26 14:59:00,42.4,0.0,30.29,NE,34,0.0,0.0,0,0.00,,---,0.00,VWS V14.00,2013-02-26 19:59:00,
2013-02-26 15:04:00,41.6,0.0,30.29,NE,34,0.0,0.0,0,0.00,,---,0.00,VWS V14.00,2013-02-26 20:04:00,
2013-02-26 15:09:00,41.6,0.0,30.29,NE,34,0.0,0.0,0,0.00,,---,0.00,VWS V14.00,2013-02-26 20:09:00,
2013-02-26 15:14:00,41.4,0.0,30.29,NE,34,0.0,0.0,0,0.00,,---,0.00,VWS V14.00,2013-02-26 20:14:00,
2013-02-26 15:19:00,40.8,0.0,30.29,NE,34,0.0,0.0,0,0.00,,---,0.00,VWS V14.00,2013-02-26 20:19:00,
2013-02-26 15:24:00,40.8,0.0,30.29,NE,34,0.0,0.0,0,0.00,,---,0.00,VWS V14.00,2013-02-26 20:24:00,
2013-02-26 15:29:00,40.7,0.0,30.29,NE,34,0.0,0.0,0,0.00,,---,0.00,VWS V14.00,2013-02-26 20:29:00,
2013-02-26 15:34:00,40.7,0.0,30.28,NE,34,0.0,0.0,0,0.00,,---,0.00,VWS V14.00,2013-02-26 20:34:00,
2013-02-26 15:39:00,41.1,0.0,30.28,NE,34,0.0,0.0,0,0.00,,---,0.00,VWS V14.00,2013-02-26 20:39:00,
2013-02-26 15:44:00,41.7,0.0,30.28,NE,34,0.0,0.0,0,0.00,,---,0.00,VWS V14.00,2013-02-26 20:44:00,
2013-02-26 15:49:00,42.1,0.0,30.27,NE,34,0.0,0.0,0,0.00,,---,0.00,VWS V14.00,2013-02-26 20:49:00,
2013-02-26 15:54:00,42.0,0.0,30.27,NE,34,0.0,0.0,0,0.00,,---,0.00,VWS V14.00,2013-02-26 20:54:00,
2013-02-26 15:59:00,41.9,0.0,30.27,NE,34,0.0,0.0,0,0.00,,---,0.00,VWS V14.00,2013-02-26 20:59:00,
2013-02-26 16:04:00,41.5,0.0,30.27,NE,34,0.0,0.0,0,0.00,,---,0.00,VWS V14.00,2013-02-26 21:04:00,
2013-02-26 16:09:00,40.7,0.0,30.28,NE,34,0.0,0.0,0,0.00,,---,0.00,VWS V14.00,2013-02-26 21:09:00,
2013-02-26 16:14:00,40.9,0.0,30.28,NE,34,0.0,0.0,0,0.00,,---,0.00,VWS V14.00,2013-02-26 21:14:00,
2013-02-26 16:19:00,40.5,0.0,30.28,SE,136,0.0,4.8,0,0.00,,---,0.00,VWS V14.00,2013-02-26 21:19:00,
2013-02-26 16:24:00,39.9,0.0,30.28,SSE,163,0.0,6.8,0,0.00,,---,0.00,VWS V14.00,2013-02-26 21:24:00,
2013-02-26 16:29:00,39.6,0.0,30.28,SSE,159,5.1,9.6,0,0.00,,---,0.00,VWS V14.00,2013-02-26 21:29:00,
2013-02-26 16:34:00,39.4,0.0,30.28,SSE,148,6.6,9.0,0,0.00,,---,0.00,VWS V14.00,2013-02-26 21:34:00,
2013-02-26 16:39:00,39.2,0.0,30.28,SSE,153,6.6,7.6,0,0.00,,---,0.00,VWS V14.00,2013-02-26 21:39:00,
2013-02-26 16:44:00,39.0,0.0,30.28,East,96,6.0,8.3,0,0.00,,---,0.00,VWS V14.00,2013-02-26 21:44:00,
2013-02-26 16:49:00,38.9,0.0,30.28,South,179,5.2,7.9,0,0.00,,---,0.00,VWS V14.00,2013-02-26 21:49:00,
2013-02-26 16:54:00,38.7,0.0,30.28,SSE,150,6.1,8.0,0,0.00,,---,0.00,VWS V14.00,2013-02-26 21:54:00,
2013-02-26 16:59:00,38.4,0.0,30.28,ESE,112,0.0,7.3,0,0.00,,---,0.00,VWS V14.00,2013-02-26 21:59:00,
2013-02-26 17:04:00,38.2,0.0,30.28,ESE,115,2.9,5.7,0,0.00,,---,0.00,VWS V14.00,2013-02-26 22:04:00,
2013-02-26 17:09:00,38.2,0.0,30.28,SSE,165,6.3,6.3,0,0.00,,---,0.00,VWS V14.00,2013-02-26 22:09:00,
2013-02-26 17:14:00,38.2,0.0,30.28,SE,136,0.0,8.4,0,0.00,,---,0.00,VWS V14.00,2013-02-26 22:14:00,
2013-02-26 17:19:00,38.0,0.0,30.28,SE,143,3.2,7.2,0,0.00,,---,0.00,VWS V14.00,2013-02-26 22:19:00,
2013-02-26 17:24:00,37.8,0.0,30.28,SSE,148,0.0,7.8,0,0.00,,---,0.00,VWS V14.00,2013-02-26 22:24:00,
2013-02-26 17:29:00,37.6,0.0,30.27,SSE,148,0.0,4.3,0,0.00,,---,0.00,VWS V14.00,2013-02-26 22:29:00,
2013-02-26 17:34:00,37.6,0.0,30.27,SSE,148,0.0,0.0,0,0.00,,---,0.00,VWS V14.00,2013-02-26 22:34:00,
2013-02-26 17:39:00,37.6,0.0,30.27,ESE,118,0.0,0.0,0,0.00,,---,0.00,VWS V14.00,2013-02-26 22:39:00,
2013-02-26 17:44:00,37.4,0.0,30.27,ESE,104,0.0,3.4,0,0.00,,---,0.00,VWS V14.00,2013-02-26 22:44:00,
2013-02-26 17:49:00,37.4,0.0,30.27,SSE,150,0.0,5.6,0,0.00,,---,0.00,VWS V14.00,2013-02-26 22:49:00,
2013-02-26 17:54:00,37.3,0.0,30.27,SE,136,0.0,3.3,0,0.00,,---,0.00,VWS V14.00,2013-02-26 22:54:00,
2013-02-26 17:59:00,37.3,0.0,30.27,SE,145,0.0,6.6,0,0.00,,---,0.00,VWS V14.00,2013-02-26 22:59:00,
2013-02-26 18:04:00,37.3,0.0,30.28,SSE,148,0.0,8.0,0,0.00,,---,0.00,VWS V14.00,2013-02-26 23:04:00,
2013-02-26 18:09:00,37.4,0.0,30.28,ESE,112,0.0,4.8,0,0.00,,---,0.00,VWS V14.00,2013-02-26 23:09:00,
2013-02-26 18:14:00,37.6,0.0,30.28,SSE,163,8.2,8.3,0,0.00,,---,0.00,VWS V14.00,2013-02-26 23:14:00,
2013-02-26 18:19:00,37.6,0.0,30.28,South,173,6.8,8.8,0,0.00,,---,0.00,VWS V14.00,2013-02-26 23:19:00,
2013-02-26 18:24:00,37.4,0.0,30.28,South,170,4.3,8.1,0,0.00,,---,0.00,VWS V14.00,2013-02-26 23:24:00,
2013-02-26 18:29:00,37.1,0.0,30.28,ESE,111,0.0,7.1,0,0.00,,---,0.00,VWS V14.00,2013-02-26 23:29:00,
2013-02-26 18:34:00,37.0,0.0,30.27,East,84,4.3,4.3,0,0.00,,---,0.00,VWS V14.00,2013-02-26 23:34:00,
2013-02-26 18:39:00,37.3,0.0,30.27,East,90,0.0,7.5,0,0.00,,---,0.00,VWS V14.00,2013-02-26 23:39:00,
2013-02-26 18:44:00,37.6,0.0,30.27,SSE,152,0.0,8.6,0,0.00,,---,0.00,VWS V14.00,2013-02-26 23:44:00,
2013-02-26 18:49:00,37.4,0.0,30.27,ESE,117,0.0,9.6,0,0.00,,---,0.00,VWS V14.00,2013-02-26 23:49:00,
2013-02-26 18:54:00,37.3,0.0,30.27,East,86,5.2,6.4,0,0.00,,---,0.00,VWS V14.00,2013-02-26 23:54:00,
2013-02-26 18:59:00,37.4,0.0,30.27,South,170,0.0,9.5,0,0.00,,---,0.00,VWS V14.00,2013-02-26 23:59:00,
2013-02-26 19:04:00,37.3,0.0,30.27,SE,142,0.0,6.5,0,0.00,,---,0.00,VWS V14.00,2013-02-27 00:04:00,
2013-02-26 19:09:00,37.4,0.0,30.28,ESE,108,0.0,5.4,0,0.00,,---,0.00,VWS V14.00,2013-02-27 00:09:00,
2013-02-26 19:14:00,37.4,0.0,30.28,SE,128,0.0,5.0,0,0.00,,---,0.00,VWS V14.00,2013-02-27 00:14:00,
2013-02-26 19:19:00,37.4,0.0,30.27,SSE,167,0.0,5.8,0,0.00,,---,0.00,VWS V14.00,2013-02-27 00:19:00,
2013-02-26 19:24:00,37.2,0.0,30.27,SSE,150,4.5,6.6,0,0.00,,---,0.00,VWS V14.00,2013-02-27 00:24:00,
2013-02-26 19:29:00,37.3,0.0,30.27,SE,124,4.2,9.6,0,0.00,,---,0.00,VWS V14.00,2013-02-27 00:29:00,
2013-02-26 19:34:00,37.4,0.0,30.27,SSE,155,0.0,7.1,0,0.00,,---,0.00,VWS V14.00,2013-02-27 00:34:00,
2013-02-26 19:39:00,37.3,0.0,30.27,SE,132,4.2,8.8,0,0.00,,---,0.00,VWS V14.00,2013-02-27 00:39:00,
2013-02-26 19:44:00,37.9,0.0,30.26,SE,128,9.3,9.3,0,0.00,,---,0.00,VWS V14.00,2013-02-27 00:44:00,
2013-02-26 19:49:00,38.1,0.0,30.27,SE,132,3.4,9.6,0,0.00,,---,0.00,VWS V14.00,2013-02-27 00:49:00,
2013-02-26 19:54:00,37.9,0.0,30.27,ENE,77,5.5,7.9,0,0.00,,---,0.00,VWS V14.00,2013-02-27 00:54:00,
2013-02-26 19:59:00,37.6,0.0,30.27,SSE,160,5.0,11.4,0,0.00,,---,0.00,VWS V14.00,2013-02-27 00:59:00,
2013-02-26 20:04:00,37.6,0.0,30.27,ENE,73,0.0,11.1,0,0.00,,---,0.00,VWS V14.00,2013-02-27 01:04:00,
2013-02-26 20:09:00,37.3,0.0,30.27,ESE,104,3.2,8.1,0,0.00,,---,0.00,VWS V14.00,2013-02-27 01:09:00,
2013-02-26 20:14:00,37.8,0.0,30.27,East,90,5.2,8.5,0,0.00,,---,0.00,VWS V14.00,2013-02-27 01:14:00,
2013-02-26 20:19:00,38.2,0.0,30.27,ESE,122,4.8,9.8,0,0.00,,---,0.00,VWS V14.00,2013-02-27 01:19:00,
2013-02-26 20:24:00,38.2,0.0,30.27,East,93,4.5,9.1,0,0.00,,---,0.00,VWS V14.00,2013-02-27 01:24:00,
2013-02-26 20:29:00,38.0,0.0,30.27,ESE,110,3.4,9.6,0,0.00,,---,0.00,VWS V14.00,2013-02-27 01:29:00,
2013-02-26 20:34:00,37.8,0.0,30.27,SE,138,4.2,9.6,0,0.00,,---,0.00,VWS V14.00,2013-02-27 01:34:00,
2013-02-26 20:39:00,37.8,0.0,30.27,SE,135,4.7,11.3,0,0.00,,---,0.00,VWS V14.00,2013-02-27 01:39:00,
2013-02-26 20:44:00,37.7,0.0,30.27,ESE,107,3.4,10.3,0,0.00,,---,0.00,VWS V14.00,2013-02-27 01:44:00,
2013-02-26 20:49:00,37.6,0.0,30.27,ENE,72,5.4,9.7,0,0.00,,---,0.00,VWS V14.00,2013-02-27 01:49:00,
2013-02-26 20:54:00,38.1,0.0,30.27,East,98,4.4,12.0,0,0.00,,---,0.00,VWS V14.00,2013-02-27 01:54:00,
2013-02-26 20:59:00,38.1,0.0,30.26,East,101,7.0,11.4,0,0.00,,---,0.00,VWS V14.00,2013-02-27 01:59:00,
2013-02-26 21:04:00,38.2,0.0,30.26,NE,41,4.5,11.9,0,0.00,,---,0.00,VWS V14.00,2013-02-27 02:04:00,
2013-02-26 21:09:00,38.2,0.0,30.26,SE,127,2.9,10.0,0,0.00,,---,0.00,VWS V14.00,2013-02-27 02:09:00,
2013-02-26 21:14:00,38.3,0.0,30.25,SE,143,4.2,11.1,0,0.00,,---,0.00,VWS V14.00,2013-02-27 02:14:00,
2013-02-26 21:19:00,38.2,0.0,30.25,ENE,59,0.0,8.4,0,0.00,,---,0.00,VWS V14.00,2013-02-27 02:19:00,
2013-02-26 21:25:00,38.3,0.0,30.24,East,98,7.5,10.4,0,0.00,,---,0.00,VWS V14.00,2013-02-27 02:25:00,
2013-02-26 21:30:00,38.2,0.0,30.25,ENE,72,7.8,11.0,0,0.00,,---,0.00,VWS V14.00,2013-02-27 02:30:00,
2013-02-26 21:35:00,38.3,0.0,30.25,ESE,117,5.8,11.1,0,0.00,,---,0.00,VWS V14.00,2013-02-27 02:35:00,
2013-02-26 21:40:00,38.3,0.0,30.25,ENE,77,0.0,11.2,0,0.00,,---,0.00,VWS V14.00,2013-02-27 02:40:00,
2013-02-26 21:45:00,38.3,0.0,30.24,East,84,7.0,9.8,0,0.00,,---,0.00,VWS V14.00,2013-02-27 02:45:00,
2013-02-26 21:50:00,38.3,0.0,30.24,SE,124,5.9,10.7,0,0.00,,---,0.00,VWS V14.00,2013-02-27 02:50:00,
2013-02-26 21:55:00,38.3,0.0,30.24,SE,128,3.2,11.4,0,0.00,,---,0.00,VWS V14.00,2013-02-27 02:55:00,
2013-02-26 22:00:00,38.2,0.0,30.24,ESE,108,9.9,11.6,0,0.00,,---,0.00,VWS V14.00,2013-02-27 03:00:00,
2013-02-26 22:05:00,38.1,0.0,30.23,ESE,117,0.0,11.5,0,0.00,,---,0.00,VWS V14.00,2013-02-27 03:05:00,
2013-02-26 22:10:00,38.1,0.0,30.23,NE,46,6.1,12.2,0,0.00,,---,0.00,VWS V14.00,2013-02-27 03:10:00,
2013-02-26 22:15:00,38.2,0.0,30.23,ENE,76,9.8,10.3,0,0.00,,---,0.00,VWS V14.00,2013-02-27 03:15:00,
2013-02-26 22:20:00,38.2,0.0,30.23,East,84,0.0,10.9,0,0.00,,---,0.00,VWS V14.00,2013-02-27 03:20:00,
2013-02-26 22:25:00,38.2,0.0,30.23,East,80,9.1,9.9,0,0.00,,---,0.00,VWS V14.00,2013-02-27 03:25:00,
2013-02-26 22:30:00,38.2,0.0,30.23,ESE,105,0.0,14.2,0,0.00,,---,0.00,VWS V14.00,2013-02-27 03:30:00,
2013-02-26 22:35:00,38.2,0.0,30.23,ESE,122,0.0,11.1,0,0.00,,---,0.00,VWS V14.00,2013-02-27 03:35:00,
2013-02-26 22:40:00,37.9,0.0,30.22,SE,129,3.4,12.1,0,0.00,,---,0.00,VWS V14.00,2013-02-27 03:40:00,
2013-02-26 22:45:00,37.9,0.0,30.22,East,91,11.1,11.4,0,0.00,,---,0.00,VWS V14.00,2013-02-27 03:45:00,
2013-02-26 22:50:00,37.8,0.0,30.22,East,80,0.0,14.9,0,0.00,,---,0.00,VWS V14.00,2013-02-27 03:50:00,
2013-02-26 22:55:00,37.8,0.0,30.21,ESE,117,0.0,11.6,0,0.00,,---,0.00,VWS V14.00,2013-02-27 03:55:00,
2013-02-26 23:00:00,37.8,0.0,30.21,East,94,0.0,12.8,0,0.00,,---,0.00,VWS V14.00,2013-02-27 04:00:00,
2013-02-26 23:05:00,37.8,0.0,30.20,East,94,0.0,9.2,0,0.00,,---,0.00,VWS V14.00,2013-02-27 04:05:00,
2013-02-26 23:10:00,37.7,0.0,30.20,SE,128,6.3,16.5,0,0.00,,---,0.00,VWS V14.00,2013-02-27 04:10:00,
2013-02-26 23:15:00,37.8,0.0,30.19,East,96,8.9,15.8,0,0.00,,---,0.00,VWS V14.00,2013-02-27 04:15:00,
2013-02-26 23:20:00,37.7,0.0,30.19,North,10,3.5,14.5,0,0.00,,---,0.00,VWS V14.00,2013-02-27 04:20:00,
2013-02-26 23:25:00,37.7,0.0,30.19,East,98,16.8,16.8,0,0.00,,---,0.00,VWS V14.00,2013-02-27 04:25:00,
2013-02-26 23:30:00,37.8,0.0,30.19,SE,128,6.7,18.4,0,0.00,,---,0.00,VWS V14.00,2013-02-27 04:30:00,
2013-02-26 23:35:00,37.8,0.0,30.19,ESE,111,6.3,13.9,0,0.00,,---,0.00,VWS V14.00,2013-02-27 04:35:00,
2013-02-26 23:40:00,37.8,0.0,30.18,ENE,72,14.5,14.5,0,0.00,,---,0.00,VWS V14.00,2013-02-27 04:40:00,
2013-02-26 23:45:00,37.9,0.0,30.19,SE,134,13.1,15.5,0,0.00,,---,0.00,VWS V14.00,2013-02-27 04:45:00,
2013-02-26 23:50:00,37.8,0.0,30.19,NE,49,10.4,15.2,0,0.00,,---,0.00,VWS V14.00,2013-02-27 04:50:00,